N1MRE Weather Reports


time (UTC)temp
F
wind
direction
speed
knots
gust
knots
rain 1hr
in
rain 24hr
in
rain mn
in
humidity
%
barometer
mb
20260507211600 60 32 5.2 12.2 0.00 0.15 0.02 33 1004.4
20260507210054 61 37 4.3 13.9 0.00 0.15 0.02 32 1004.3
20260507204553 61 11 7.0 13.9 0.00 0.22 0.02 33 1004.2
20260507203052 60 44 5.2 9.6 0.00 0.22 0.02 33 1004.2
20260507201552 59 319 4.3 11.3 0.00 0.22 0.02 38 1004.2
20260507200052 59 14 3.5 13.9 0.00 0.22 0.02 35 1004.2
20260507194551 62 320 3.5 13.9 0.00 0.25 0.02 35 1004.4
20260507193059 61 360 7.0 16.5 0.00 0.25 0.02 33 1004.3
20260507191548 59 320 5.2 13.9 0.00 0.25 0.02 37 1004.4
20260507190052 57 343 7.8 19.1 0.00 0.25 0.02 36 1004.7
20260507184550 59 34 4.3 14.8 0.00 0.30 0.02 38 1004.6
20260507183050 60 37 6.1 15.6 0.00 0.30 0.02 35 1004.8
20260507181553 60 270 6.1 15.6 0.00 0.30 0.02 37 1005.0
20260507180052 60 302 7.0 19.1 0.00 0.30 0.02 37 1005.0
20260507174630 59 15 4.3 15.6 0.00 0.32 0.02 41 1005.2
20260507173055 58 324 5.2 15.6 0.00 0.32 0.02 47 1005.3
20260507171610 57 229 7.8 15.6 0.00 0.32 0.02 48 1005.4
20260507170054 57 338 3.5 12.2 0.00 0.32 0.02 58 1005.4
20260507164554 56 191 4.3 14.8 0.00 0.32 0.02 58 1005.5
20260507163055 57 251 5.2 17.4 0.00 0.32 0.02 54 1005.8
20260507161557 60 304 6.1 13.9 0.00 0.32 0.02 52 1005.6
20260507160114 59 269 5.2 13.9 0.00 0.32 0.02 56 1005.6
20260507154554 60 269 5.2 15.6 0.00 0.32 0.02 55 1005.7
20260507153052 59 234 4.3 13.9 0.00 0.32 0.02 54 1005.7
20260507151558 58 5 4.3 13.0 0.00 0.32 0.02 58 1005.9
20260507150051 57 213 4.3 11.3 0.00 0.32 0.02 57 1006.0
20260507144555 56 253 2.6 7.0 0.00 0.32 0.02 59 1006.0
20260507143058 56 334 2.6 13.9 0.00 0.32 0.02 58 1006.0
20260507141602 56 323 3.5 10.4 0.00 0.32 0.02 60 1006.0
20260507140109 55 240 2.6 7.0 0.00 0.32 0.02 65 1006.1
20260507134555 54 0 0.0 7.8 0.00 0.32 0.02 68 1006.1
20260507133059 53 0 1.7 6.1 0.00 0.32 0.02 74 1006.2
20260507131613 51 351 0.9 2.6 0.00 0.32 0.02 77 1006.4
20260507130049 50 0 0.0 5.2 0.00 0.32 0.02 82 1006.4
20260507124554 48 0 0.9 5.2 0.00 0.32 0.02 85 1006.4
20260507123047 47 0 0.0 2.6 0.00 0.32 0.02 88 1006.5
20260507121556 46 0 0.0 0.0 0.00 0.32 0.02 89 1006.7
20260507120047 45 0 0.0 0.0 0.00 0.32 0.02 90 1006.5
20260507114548 44 0 0.0 0.0 0.00 0.32 0.02 90 1006.4
20260507113125 43 0 0.0 0.0 0.00 0.32 0.02 90 1006.4
20260507111549 42 0 0.0 0.0 0.00 0.32 0.02 90 1006.7
20260507110051 42 0 0.0 0.0 0.00 0.32 0.02 90 1006.6
20260507104558 42 0 0.0 0.0 0.00 0.32 0.02 90 1006.8
20260507103050 42 0 0.0 0.0 0.00 0.32 0.02 90 1006.6
20260507101554 42 0 0.0 0.0 0.00 0.32 0.02 90 1006.8
20260507100057 43 0 0.0 0.0 0.00 0.32 0.02 89 1006.7
20260507094604 43 0 0.0 0.0 0.00 0.32 0.02 89 1006.7
20260507093050 44 0 0.0 0.0 0.00 0.32 0.02 89 1006.5
20260507091549 44 0 0.0 2.6 0.00 0.32 0.02 89 1006.4
20260507090052 45 344 1.7 3.5 0.00 0.32 0.02 89 1006.2
20260507084557 45 360 0.9 4.3 0.00 0.32 0.02 89 1006.2
20260507083052 45 27 1.7 4.3 0.00 0.32 0.02 89 1006.6
20260507081550 45 360 2.6 7.0 0.00 0.32 0.02 88 1006.4
20260507080055 46 52 2.6 7.0 0.00 0.32 0.02 88 1005.9
20260507074551 46 31 3.5 9.6 0.00 0.32 0.02 88 1005.8
20260507073053 46 41 2.6 10.4 0.00 0.32 0.02 89 1005.8
20260507071549 46 44 2.6 7.8 0.00 0.32 0.02 89 1005.9
20260507070105 47 40 0.9 6.1 0.00 0.32 0.02 89 1006.1
20260507064553 47 39 0.9 6.1 0.00 0.32 0.02 89 1005.7
20260507063053 47 24 1.7 6.1 0.00 0.32 0.02 89 1005.4
20260507061549 47 38 0.9 7.8 0.00 0.32 0.02 89 1005.3
20260507060053 48 22 1.7 4.3 0.00 0.32 0.02 89 1004.9
20260507054558 48 360 2.6 6.1 0.00 0.32 0.02 89 1005.0
20260507053047 48 14 0.9 3.5 0.00 0.32 0.02 89 1005.0
20260507051550 49 11 0.0 4.3 0.01 0.32 0.02 89 1004.8
20260507050105 49 21 1.7 5.2 0.02 0.32 0.02 89 1004.7
20260507044555 50 34 1.7 7.0 0.03 0.32 0.02 89 1004.7
20260507043051 50 18 3.5 7.8 0.03 0.32 0.02 89 1004.9
20260507041550 51 59 2.6 8.7 0.03 0.31 0.01 89 1004.8
20260507040058 52 64 4.3 8.7 0.02 0.30 0.00 89 1004.9
20260507034550 53 35 2.6 6.1 0.02 0.29 0.29 89 1004.7
20260507033050 54 351 2.6 7.8 0.03 0.28 0.28 89 1004.9
20260507031548 55 5 2.6 7.8 0.03 0.28 0.28 88 1004.4
20260507030052 56 360 1.7 5.2 0.03 0.28 0.28 88 1004.3
20260507024549 57 20 0.9 8.7 0.03 0.27 0.27 88 1004.0
20260507023057 58 0 0.0 0.0 0.01 0.25 0.25 89 1003.7
20260507021605 58 0 0.0 1.7 0.01 0.25 0.25 88 1003.8
20260507020057 58 0 0.0 3.5 0.00 0.24 0.24 88 1003.8
20260507014557 58 0 0.0 0.0 0.00 0.24 0.24 88 1003.7
20260507013054 58 171 0.9 4.3 0.00 0.24 0.24 88 1003.6
20260507011600 58 0 0.0 2.6 0.00 0.24 0.24 88 1003.9
20260507010055 58 0 0.0 4.3 0.00 0.24 0.24 88 1003.6
20260507004600 58 179 0.0 3.5 0.00 0.24 0.24 88 1003.7
20260507003056 58 174 0.9 7.8 0.00 0.24 0.24 88 1003.8
20260507001606 59 207 1.7 7.8 0.00 0.24 0.24 88 1003.5
20260507000057 59 183 2.6 10.4 0.01 0.24 0.24 88 1003.2
20260506234615 59 213 3.5 7.8 0.01 0.24 0.24 88 1003.1
20260506233056 59 189 2.6 9.6 0.01 0.24 0.24 88 1003.1
20260506231546 59 189 3.5 13.9 0.02 0.24 0.24 88 1003.1
20260506230056 59 220 2.6 10.4 0.02 0.23 0.23 88 1002.9
20260506224548 59 146 3.5 13.0 0.03 0.23 0.23 88 1003.1
20260506223056 59 160 2.6 7.8 0.05 0.23 0.23 88 1003.4
20260506221555 59 168 1.7 8.7 0.05 0.22 0.22 87 1003.5
20260506220053 59 0 0.9 7.0 0.04 0.21 0.21 88 1003.7
20260506214554 60 0 2.6 7.0 0.03 0.20 0.20 87 1004.0
20260506213055 60 171 3.5 8.7 0.03 0.18 0.18 87 1004.2